STARLINK-34402

Last updated on Thu Jul 03 2025 00:02:07 GMT+0000 (Coordinated Universal Time)

1 64446U 25130J 25183.58335648 -.01036583 00000+0 -73604-2 0 9995 2 64446 53.1560 179.7884 0001126 54.7133 58.6700 15.75649058 3507
UTC large
Height (km)
Speed (km/s)
/
Latitude / Longitude
Inclination (degrees)
Orbital Period (minutes)
Azimuth
Elevation
Range (km)
Doppler Factor

Next 0 passes for location: London (51.5072 / 0.1276)

Sorry there are no passes over London.